Terug naar catalogus

STARLINK-5142

ActiefCommunicatieVLEO
NORAD 53984·PAYLOAD·🇺🇸 United States

Gelanceerd Oct 5, 2022 vanaf Vandenberg Space Force Base

Loading…

Volgende Passages (komende 24 uur)

TLE

VersSource: CelesTrak SupGP

Epoch: Sep 14, 2026, 22:05 UTC

1 53984C 22125W   26257.92062500  .00031856  00000+0  19981-2 0  2576
2 53984  53.1578  84.1558 0001340  85.3644  64.1887 15.08812562    12

Volg STARLINK-5142 in realtime met AllMySat

Download on the App Store